| time (UTC) | temp F | wind direction | speed MPH | gust MPH | rain 1hr in | rain 24hr in | rain mn in | humidity % | barometer mb |
| 20260506051005 | 43 | 127 | 0.0 | 0.0 | 0.00 | 0.06 | 0.00 | 94 | 1018.4 |
| 20260506045004 | 43 | 127 | 0.0 | 0.0 | 0.00 | 0.08 | 0.00 | 94 | 1018.1 |
| 20260506043005 | 43 | 125 | 0.0 | 0.0 | 0.00 | 0.08 | 0.00 | 94 | 1018.2 |
| 20260506042006 | 43 | 129 | 0.0 | 0.0 | 0.00 | 0.08 | 0.00 | 94 | 1018.1 |
| 20260506041005 | 43 | 129 | 0.0 | 0.0 | 0.00 | 0.08 | 0.00 | 94 | 1017.9 |
| 20260506040005 | 43 | 129 | 0.0 | 1.0 | 0.00 | 0.08 | 0.00 | 94 | 1017.8 |
| 20260506035005 | 43 | 129 | 0.0 | 0.0 | 0.00 | 0.08 | 0.00 | 94 | 1017.7 |
| 20260506034005 | 43 | 129 | 0.0 | 0.0 | 0.00 | 0.08 | 0.00 | 94 | 1017.7 |
| 20260506033006 | 43 | 129 | 0.0 | 0.0 | 0.00 | 0.08 | 0.00 | 94 | 1017.5 |
| 20260506032005 | 43 | 129 | 0.0 | 0.0 | 0.00 | 0.08 | 0.00 | 94 | 1017.2 |
| 20260506031004 | 43 | 129 | 0.0 | 0.0 | 0.00 | 0.08 | 0.00 | 94 | 1017.1 |
| 20260506025001 | 44 | 129 | 0.0 | 0.0 | 0.00 | 0.08 | 0.00 | 94 | 1017.0 |
| 20260506023005 | 44 | 129 | 0.0 | 0.0 | 0.00 | 0.08 | 0.00 | 94 | 1016.9 |
| 20260506022005 | 43 | 129 | 0.0 | 0.0 | 0.00 | 0.08 | 0.00 | 94 | 1017.0 |
| 20260506021001 | 43 | 129 | 0.0 | 0.0 | 0.00 | 0.08 | 0.00 | 94 | 1016.8 |
| 20260506020001 | 43 | 129 | 0.0 | 1.0 | 0.00 | 0.08 | 0.00 | 94 | 1016.9 |
| 20260506015004 | 44 | 102 | 0.0 | 0.0 | 0.00 | 0.08 | 0.00 | 94 | 1016.8 |
| 20260506013000 | 44 | 115 | 0.0 | 1.0 | 0.00 | 0.08 | 0.00 | 94 | 1016.8 |
| 20260506012005 | 44 | 114 | 0.0 | 1.0 | 0.00 | 0.08 | 0.00 | 94 | 1016.7 |
| 20260506011004 | 44 | 114 | 0.0 | 0.0 | 0.00 | 0.08 | 0.00 | 94 | 1016.7 |
| 20260506010004 | 44 | 116 | 0.0 | 1.0 | 0.00 | 0.08 | 0.00 | 94 | 1016.6 |
| 20260506005000 | 44 | 132 | 0.0 | 1.0 | 0.00 | 0.08 | 0.00 | 94 | 1016.5 |
| 20260506004004 | 44 | 132 | 0.0 | 1.0 | 0.00 | 0.08 | 0.00 | 94 | 1016.5 |
| 20260506003004 | 44 | 124 | 0.0 | 1.0 | 0.00 | 0.08 | 0.00 | 94 | 1016.4 |
| 20260506001004 | 44 | 62 | 0.0 | 1.0 | 0.00 | 0.08 | 0.00 | 94 | 1016.3 |
| 20260506000005 | 44 | 319 | 0.0 | 1.0 | 0.00 | 0.08 | 0.00 | 94 | 1016.3 |
| 20260505235004 | 44 | 309 | 0.0 | 2.0 | 0.00 | 0.08 | 0.00 | 94 | 1016.2 |
| 20260505234005 | 44 | 142 | 0.0 | 2.0 | 0.00 | 0.08 | 0.00 | 94 | 1016.0 |
| 20260505233001 | 44 | 102 | 0.0 | 2.0 | 0.00 | 0.08 | 0.00 | 94 | 1016.0 |
| 20260505232005 | 44 | 123 | 0.0 | 1.0 | 0.00 | 0.08 | 0.00 | 94 | 1015.9 |
| 20260505231004 | 45 | 122 | 0.0 | 1.0 | 0.00 | 0.08 | 0.00 | 94 | 1015.8 |
| 20260505230004 | 45 | 300 | 0.0 | 1.0 | 0.00 | 0.08 | 0.00 | 94 | 1015.8 |
| 20260505225005 | 44 | 334 | 0.0 | 1.0 | 0.00 | 0.11 | 0.00 | 94 | 1015.8 |
| 20260505223005 | 44 | 120 | 0.0 | 1.0 | 0.00 | 0.11 | 0.00 | 94 | 1015.9 |
| 20260505222004 | 44 | 131 | 0.0 | 1.0 | 0.00 | 0.11 | 0.00 | 94 | 1015.8 |
| 20260505220007 | 44 | 116 | 0.0 | 1.0 | 0.00 | 0.11 | 0.00 | 94 | 1016.0 |
| 20260505213005 | 43 | 93 | 0.0 | 1.0 | 0.00 | 0.15 | 0.00 | 94 | 1016.0 |
| 20260505212005 | 43 | 39 | 0.0 | 2.0 | 0.00 | 0.15 | 0.00 | 94 | 1016.1 |
| 20260505211005 | 44 | 43 | 0.0 | 1.0 | 0.00 | 0.15 | 0.00 | 94 | 1016.0 |
| 20260505210006 | 43 | 122 | 0.0 | 1.0 | 0.00 | 0.15 | 0.00 | 94 | 1016.0 |
| 20260505205003 | 43 | 76 | 0.0 | 2.0 | 0.00 | 0.19 | 0.00 | 94 | 1015.8 |
| 20260505204005 | 44 | 25 | 0.0 | 1.0 | 0.00 | 0.19 | 0.00 | 94 | 1015.8 |
| 20260505203004 | 43 | 44 | 0.0 | 1.0 | 0.00 | 0.19 | 0.00 | 94 | 1015.9 |
| 20260505202004 | 44 | 65 | 0.0 | 1.0 | 0.00 | 0.19 | 0.00 | 94 | 1015.8 |
| 20260505201004 | 43 | 129 | 0.0 | 2.0 | 0.00 | 0.19 | 0.00 | 94 | 1015.8 |
| 20260505200005 | 43 | 105 | 0.0 | 1.0 | 0.00 | 0.19 | 0.00 | 94 | 1015.8 |
| 20260505195011 | 43 | 20 | 0.0 | 2.0 | 0.00 | 0.19 | 0.00 | 94 | 1015.8 |
| 20260505193004 | 43 | 41 | 0.0 | 1.0 | 0.00 | 0.19 | 0.00 | 94 | 1015.8 |
| 20260505192005 | 43 | 16 | 0.0 | 2.0 | 0.00 | 0.19 | 0.00 | 94 | 1015.6 |
| 20260505191004 | 44 | 44 | 0.0 | 1.0 | 0.00 | 0.19 | 0.00 | 94 | 1015.6 |
| 20260505190005 | 43 | 76 | 0.0 | 2.0 | 0.00 | 0.19 | 0.00 | 94 | 1015.5 |
| 20260505185005 | 43 | 300 | 0.0 | 3.0 | 0.00 | 0.19 | 0.00 | 93 | 1015.3 |
| 20260505184005 | 43 | 65 | 0.0 | 2.0 | 0.00 | 0.19 | 0.00 | 93 | 1015.4 |
| 20260505183006 | 44 | 245 | 0.0 | 1.0 | 0.00 | 0.19 | 0.00 | 93 | 1015.5 |
| 20260505182005 | 44 | 269 | 0.0 | 1.0 | 0.00 | 0.19 | 0.00 | 93 | 1015.3 |
| 20260505181004 | 43 | 270 | 1.0 | 2.0 | 0.00 | 0.19 | 0.00 | 93 | 1015.1 |
| 20260505180005 | 43 | 247 | 0.0 | 3.0 | 0.00 | 0.19 | 0.00 | 93 | 1015.0 |
| 20260505174004 | 44 | 287 | 0.0 | 2.0 | 0.00 | 0.23 | 0.00 | 94 | 1014.8 |
| 20260505172004 | 43 | 46 | 0.0 | 1.0 | 0.00 | 0.23 | 0.00 | 94 | 1014.8 |
| 20260505171004 | 42 | 67 | 0.0 | 1.0 | 0.00 | 0.23 | 0.00 | 94 | 1014.8 |
| 20260505170005 | 42 | 51 | 0.0 | 1.0 | 0.00 | 0.23 | 0.00 | 94 | 1014.6 |
| 20260505165004 | 42 | 133 | 0.0 | 1.0 | 0.00 | 0.25 | 0.00 | 94 | 1014.6 |
| 20260505164004 | 42 | 132 | 0.0 | 1.0 | 0.00 | 0.25 | 0.00 | 95 | 1014.6 |
| 20260505163007 | 40 | 184 | 0.0 | 0.0 | 0.00 | 0.25 | 0.00 | 94 | 1014.5 |
| 20260505162005 | 40 | 183 | 0.0 | 1.0 | 0.00 | 0.25 | 0.00 | 94 | 1014.5 |
| 20260505161005 | 40 | 183 | 0.0 | 1.0 | 0.00 | 0.25 | 0.00 | 94 | 1014.4 |
| 20260505153004 | 39 | 191 | 0.0 | 1.0 | 0.00 | 0.26 | 0.00 | 94 | 1014.3 |
| 20260505152003 | 38 | 323 | 0.0 | 0.0 | 0.00 | 0.26 | 0.00 | 94 | 1014.0 |
| 20260505151004 | 38 | 323 | 0.0 | 0.0 | 0.00 | 0.26 | 0.00 | 94 | 1013.9 |
| 20260505125004 | 37 | 323 | 0.0 | 0.0 | 0.00 | 0.30 | 0.00 | 94 | 1013.8 |
| 20260505124004 | 37 | 323 | 0.0 | 0.0 | 0.00 | 0.30 | 0.00 | 94 | 1013.7 |
| 20260505123004 | 37 | 323 | 0.0 | 0.0 | 0.00 | 0.30 | 0.00 | 94 | 1013.6 |
| 20260505122004 | 37 | 323 | 0.0 | 0.0 | 0.00 | 0.30 | 0.00 | 94 | 1013.5 |
| 20260505121004 | 37 | 323 | 0.0 | 0.0 | 0.00 | 0.30 | 0.00 | 94 | 1013.4 |
| 20260505115003 | 38 | 323 | 0.0 | 1.0 | 0.00 | 0.30 | 0.00 | 94 | 1013.5 |
| 20260505114004 | 38 | 323 | 0.0 | 0.0 | 0.00 | 0.30 | 0.00 | 94 | 1013.6 |
| 20260505113004 | 38 | 323 | 0.0 | 0.0 | 0.00 | 0.30 | 0.00 | 94 | 1013.4 |
| 20260505112004 | 38 | 323 | 0.0 | 0.0 | 0.00 | 0.30 | 0.00 | 94 | 1013.6 |
| 20260505102012 | 38 | 323 | 0.0 | 0.0 | 0.00 | 0.30 | 0.00 | 94 | 1013.7 |
| 20260505101004 | 38 | 323 | 0.0 | 0.0 | 0.00 | 0.30 | 0.00 | 94 | 1013.8 |
| 20260505100005 | 38 | 323 | 0.0 | 0.0 | 0.00 | 0.30 | 0.00 | 94 | 1013.9 |
| 20260505095004 | 38 | 323 | 0.0 | 1.0 | 0.00 | 0.30 | 0.00 | 94 | 1013.9 |
| 20260505094004 | 38 | 323 | 0.0 | 0.0 | 0.00 | 0.30 | 0.00 | 94 | 1014.0 |
| 20260505093004 | 38 | 323 | 0.0 | 1.0 | 0.00 | 0.30 | 0.00 | 94 | 1014.0 |
| 20260505092004 | 38 | 323 | 0.0 | 0.0 | 0.00 | 0.30 | 0.00 | 94 | 1014.2 |
| 20260505090005 | 38 | 323 | 0.0 | 0.0 | 0.00 | 0.30 | 0.00 | 94 | 1014.1 |
| 20260505085004 | 38 | 323 | 0.0 | 0.0 | 0.00 | 0.30 | 0.00 | 94 | 1014.0 |
| 20260505084004 | 38 | 323 | 0.0 | 1.0 | 0.00 | 0.30 | 0.00 | 94 | 1014.3 |
| 20260505083004 | 38 | 295 | 0.0 | 1.0 | 0.00 | 0.30 | 0.00 | 94 | 1014.5 |
| 20260505082004 | 38 | 295 | 0.0 | 0.0 | 0.00 | 0.30 | 0.00 | 94 | 1014.6 |
| 20260505081004 | 38 | 295 | 0.0 | 0.0 | 0.00 | 0.30 | 0.00 | 94 | 1014.5 |
| 20260505080004 | 38 | 295 | 0.0 | 0.0 | 0.00 | 0.30 | 0.00 | 94 | 1014.5 |
| 20260505075004 | 38 | 295 | 0.0 | 0.0 | 0.00 | 0.30 | 0.00 | 94 | 1014.5 |
| 20260505072004 | 39 | 295 | 0.0 | 0.0 | 0.02 | 0.30 | 0.00 | 94 | 1014.5 |
| 20260505071004 | 39 | 295 | 0.0 | 0.0 | 0.03 | 0.30 | 0.00 | 94 | 1014.5 |
| 20260505070006 | 39 | 295 | 0.0 | 0.0 | 0.04 | 0.30 | 0.00 | 94 | 1014.5 |
| 20260505065005 | 39 | 295 | 0.0 | 0.0 | 0.04 | 0.30 | 0.30 | 94 | 1014.5 |
| 20260505064005 | 39 | 295 | 0.0 | 0.0 | 0.05 | 0.30 | 0.30 | 94 | 1014.5 |
| 20260505063005 | 39 | 295 | 0.0 | 1.0 | 0.04 | 0.29 | 0.29 | 94 | 1014.5 |
| 20260505061004 | 39 | 294 | 0.0 | 0.0 | 0.02 | 0.27 | 0.27 | 94 | 1014.5 |
| 20260505060005 | 39 | 294 | 0.0 | 0.0 | 0.02 | 0.26 | 0.26 | 94 | 1014.6 |